MPEC 2004-S60 : 2004 SU55

The following Minor Planet Electronic Circular may be linked-to from your own Web pages, but must not otherwise be redistributed electronically.


Read MPEC 2004-S59 Read MPEC 2004-S61


M.P.E.C. 2004-S60                                Issued 2004 Sept. 26, 03:26 UT

     The Minor Planet Electronic Circulars contain information on unusual
         minor planets and routine data on comets.  They are published
   on behalf of Commission 20 of the International Astronomical Union by the
          Minor Planet Center, Smithsonian Astrophysical Observatory,
                          Cambridge, MA 02138, U.S.A.

                  Supported in part by the Brinson Foundation
             Prepared using the Tamkin Foundation Computer Network

                              MPC@CFA.HARVARD.EDU
          URL http://cfa-www.harvard.edu/iau/mpc.html  ISSN 1523-6714

                                   2004 SU55

Observations:
     K04S55U  C2004 09 22.28892 01 08 09.50 +06 22 21.4          19.4   ES060704
     K04S55U  C2004 09 22.30108 01 08 13.72 +06 22 33.2          19.9   ES060704
     K04S55U  C2004 09 22.32537 01 08 21.99 +06 22 58.0          19.9   ES060704
     K04S55U* C2004 09 23.29504 01 14 48.16 +06 38 17.3          19.6   ES060704
     K04S55U  C2004 09 23.30687 01 14 52.17 +06 38 28.7          19.9   ES060704
     K04S55U  C2004 09 23.31870 01 14 56.28 +06 38 40.7          19.8   ES060704
     K04S55U  C2004 09 23.33058 01 15 00.37 +06 38 50.9          19.6   ES060704
     K04S55U FC2004 09 23.93780 01 19 07.49 +06 47 41.0                 ES060J95
     K04S55U  C2004 09 23.94071 01 19 08.60 +06 47 43.1          19.5 R ES060J95
     K04S55U  C2004 09 24.28501 01 21 26.52 +06 53 42.4          19.3   ES060704
     K04S55U  C2004 09 24.29724 01 21 30.84 +06 53 54.8          19.4   ES060704
     K04S55U  C2004 09 24.30943 01 21 35.18 +06 54 06.2          20.1   ES060704
     K04S55U  C2004 09 24.33383 01 21 43.66 +06 54 30.2          19.9   ES060704
     K04S55U  C2004 09 25.00078 01 26 16.29 +07 04 27.9          19.4 V ES060941
     K04S55U  C2004 09 25.00257 01 26 16.93 +07 04 29.4          18.9 V ES060941
     K04S55U  C2004 09 25.00391 01 26 17.41 +07 04 30.3          19.2 V ES060941
     K04S55U  C2004 09 25.00569 01 26 18.05 +07 04 32.2          19.1 V ES060941
     K04S55U  C2004 09 25.00793 01 26 18.86 +07 04 33.8          19.3 V ES060941
     K04S55U  C2004 09 25.94306 01 32 43.75 +07 18 35.6          19.0 R ES060176
     K04S55U  C2004 09 25.94400 01 32 44.06 +07 18 36.6          18.9 R ES060176
     K04S55U  C2004 09 25.94493 01 32 44.40 +07 18 38.0          19.0 R ES060176
     K04S55U  C2004 09 25.94586 01 32 44.78 +07 18 38.4          19.0 R ES060176

Observer details:
176 Observatori Astronomic de Consell.  Observers A. Lopez, R. Pacheco,
    J. Forteza.  0.41-m f/4 reflector + CCD.
704 Lincoln Laboratory ETS, New Mexico.  Observers M. Blythe, F. Shelly,
    M. Bezpalko, R. Huber, L. Manguso, D. Torres, R. Kracke, M. McCleary,
    H. Stange, A. Milner.  Measurers J. Stuart, R. Sayer, J. Evans, J. Kommers.
    1.0-m f/2.15 reflector + CCD.
941 Observatorio Pla D'Arguines.  Observer R. Ferrando.  0.36-m f/6.3
    Schmidt-Cassegrain + CCD.
J95 Great Shefford.  Observer P. Birtwhistle.  0.30-m f/6.3 Schmidt-Cassegrain
    + CCD.

Orbital elements:
2004 SU55
Epoch 2004 Sept. 12.0 TT = JDT 2453260.5                MPC
M 342.95470              (2000.0)            P               Q
n   0.60911395     Peri.  200.07199     +0.94829301     -0.31739575
a   1.3782786      Node   178.43320     +0.29389923     +0.87743057
e   0.2385990      Incl.    1.15998     +0.11984828     +0.35968812
P   1.62           H   24.3           G   0.15
From 22 observations 2004 Sept. 22-25.

Ephemeris:
2004 SU55                a,e,i = 1.38, 0.24, 1                   q = 1.0494
Date    TT    R. A. (2000) Decl.     Delta      r     Elong.  Phase     V
2004 09 22    01 06.22   +06 18.9    0.059    1.060   161.6    17.4    19.2
2004 10 02    02 14.10   +08 40.6    0.056    1.051   154.5    24.2    19.3
2004 10 12    03 14.63   +10 02.1    0.060    1.050   149.1    29.2    19.6
2004 10 22    03 56.37   +10 37.0    0.068    1.054   148.3    29.7    19.9
2004 11 01    04 20.17   +11 00.6    0.081    1.065   151.9    26.0    20.2
2004 11 11    04 30.62   +11 30.1    0.097    1.081   158.6    19.5    20.4
2004 11 21    04 32.99   +12 14.0    0.118    1.103   166.5    12.0    20.6
2004 12 01    04 32.23   +13 12.3    0.144    1.128   171.4     7.5    20.9
2004 12 11    04 31.54   +14 19.9    0.177    1.158   166.9    11.1    21.6

Kyle E. Smalley              (C) Copyright 2004 MPC           M.P.E.C. 2004-S60

Read MPEC 2004-S59 Read MPEC 2004-S61


Our Web policy. Index to the CBAT/MPC/ICQ pages.

MPC